EHI
4 4 4 4 4 3 2 1 1 0 0 0 0 0 0 0 1 2 1 0 0 0 0 0 0 0 0 0 0 0 0 0 0 0 0 0 0 0 0 0 0 0 0
4 5 6 7 7 7 5 3 2 1 0 0 0 0 0 0 1 1 1 0 0 0 0 0 0 0 0 0 0 0 0 0 0 0 0 0 0 0 0 0 0 0 0
8 10 11 11 12 12 9 6 3 2 1 0 0 0 0 0 1 1 0 0 0 0 0 0 0 0 0 0 0 0 0 0 0 0 0 0 0 0 0 0 0 0 0
14 15 14 13 13 13 11 7 4 2 1 0 0 0 0 0 1 0 0 0 1 0 0 0 0 0 0 0 0 0 0 0 0 0 0 0 0 0 0 0 0 0 0
17 17 15 14 13 13 12 8 5 2 0 0 0 0 0 1 1 0 0 1 1 0 0 0 0 0 0 0 0 0 0 0 0 0 0 0 0 0 0 0 0 0 0
16 16 15 14 13 12 12 9 6 3 1 0 0 0 0 1 0 0 0 1 0 0 0 0 0 0 0 0 0 0 0 0 0 0 0 0 0 0 0 0 0 0 0
15 15 15 14 13 12 12 11 9 6 3 1 1 0 0 0 0 0 0 0 0 0 0 0 0 0 0 0 0 0 0 0 0 0 0 0 0 0 0 0 0 0 0
18 18 19 18 15 15 13 11 10 8 6 4 2 1 1 0 0 0 0 0 0 0 0 0 0 0 0 0 0 0 0 0 0 0 0 0 0 0 0 0 0 0 0
20 21 23 21 19 17 14 11 10 9 7 6 4 2 1 0 0 0 0 0 0 0 0 0 0 0 0 0 0 0 0 0 0 0 0 0 0 0 0 0 0 0 0
20 21 23 23 22 18 13 10 9 8 7 6 4 2 1 0 0 0 0 0 0 0 0 0 0 0 0 0 0 0 0 0 0 0 0 0 0 0 0 0 0 0 0
21 21 21 22 23 18 11 8 8 7 7 6 5 2 0 0 0 0 0 0 0 0 0 0 0 0 0 0 0 0 0 0 0 0 0 0 0 0 0 0 0 0 0
24 21 18 19 20 16 10 6 6 6 6 6 5 2 0 0 0 0 0 0 0 0 0 0 0 0 0 0 0 0 0 0 0 0 0 0 0 0 0 0 0 0 0
24 20 17 16 15 13 9 7 7 8 7 7 6 4 2 0 0 0 0 0 0 0 0 0 0 0 0 0 0 0 0 0 0 0 0 0 0 0 0 0 0 0 0
21 19 18 16 13 11 10 10 10 11 9 8 7 6 4 1 0 0 0 0 0 0 0 0 0 0 0 0 0 0 0 0 0 0 0 0 0 0 0 0 0 0 0
19 19 19 17 14 11 11 11 10 10 9 8 7 6 5 2 0 0 0 0 0 0 0 0 0 0 0 0 0 0 0 0 0 0 0 0 0 0 0 0 0 0 0
20 20 20 19 16 14 11 9 6 5 5 4 4 3 3 2 0 0 0 0 0 0 0 0 0 0 0 0 0 0 0 0 0 0 0 0 0 0 0 0 0 0 0
21 21 20 20 17 14 11 9 7 5 3 2 1 1 1 0 0 0 0 0 0 0 0 0 0 0 0 0 0 0 0 0 0 0 0 0 0 0 0 0 0 0 0
21 20 20 19 17 14 13 13 12 10 8 5 2 0 0 0 0 0 0 0 0 0 0 0 0 0 0 0 0 0 0 0 0 0 0 0 0 0 0 0 0 0 0
19 18 18 19 17 16 16 15 14 12 11 8 4 1 0 0 0 0 0 0 0 0 0 0 0 0 0 0 0 0 0 0 0 0 0 0 0 0 0 0 0 0 0
14 14 15 17 18 17 16 14 12 11 11 10 7 4 2 1 0 0 0 0 0 0 0 0 0 0 0 0 0 0 0 0 0 0 0 0 0 0 0 0 0 0 0
10 9 10 14 17 16 15 13 12 12 12 12 10 6 3 1 0 0 0 0 0 0 0 0 0 0 0 0 0 0 0 0 0 0 0 0 0 0 0 0 0 0 0
7 7 7 10 12 13 12 12 12 13 13 12 10 6 2 1 0 0 0 0 0 0 0 0 0 0 0 0 0 0 0 0 0 0 0 0 0 0 0 0 0 0 0
7 7 7 8 8 8 8 9 10 11 11 10 8 5 1 0 0 0 0 0 0 0 0 0 0 0 0 0 0 0 0 0 0 0 0 0 0 0 0 0 0 0 0
9 8 8 7 6 5 5 6 6 7 8 7 5 4 2 1 0 0 0 0 0 0 0 0 0 0 0 0 0 0 0 0 0 0 0 0 0 0 0 0 0 0 0
9 10 10 7 5 4 4 4 3 3 4 4 3 3 4 3 1 1 0 0 0 0 0 0 0 0 0 0 0 0 0 0 0 0 0 0 0 0 0 0 0 0 0
9 10 10 8 5 3 3 3 2 1 2 2 2 3 5 4 2 2 1 0 0 0 0 0 0 0 0 0 0 0 0 0 0 0 0 0 0 0 0 0 0 0 0
Wind_Speed
4 4 3 3 2 2 2 2 2 1 2 2 2 2 2 2 2 2 1 1 2 1 1 1 1 1 1 1 1 2 2 2 3 1 1 1 1 2 2 2 2 3 3
5 4 4 3 3 3 2 2 2 2 2 2 2 2 2 2 2 2 1 2 2 1 1 1 1 1 2 2 2 2 2 2 3 3 2 1 1 1 1 2 2 2 2
5 5 4 4 4 3 3 3 3 3 3 3 3 2 2 2 2 1 2 2 2 1 1 1 1 2 2 1 1 2 2 2 2 3 2 1 1 1 1 2 2 2 1
6 5 5 4 4 4 3 3 3 3 3 3 2 2 2 2 2 2 2 2 2 2 1 1 1 2 2 2 2 2 3 3 3 4 3 2 1 1 2 1 1 1 1
6 6 5 4 4 4 4 3 4 3 3 3 2 2 2 2 1 1 2 2 2 2 2 2 2 2 3 2 2 3 4 3 3 3 3 2 2 2 2 1 1 0 1
7 6 5 4 4 4 4 4 4 3 3 3 2 2 2 1 1 3 3 2 2 2 2 2 2 3 3 3 4 4 4 4 4 3 2 3 3 2 2 2 2 1 0
7 6 6 6 5 5 5 4 4 4 3 3 2 2 2 1 2 3 3 3 2 2 2 1 2 2 2 3 4 4 3 3 4 3 4 4 4 4 4 3 3 2 1
7 6 6 6 6 5 5 5 4 3 3 3 2 2 2 1 2 3 4 3 3 2 1 1 1 1 2 2 3 3 2 1 1 2 3 3 3 4 5 4 4 2 1
8 7 7 7 7 6 6 5 4 3 3 2 2 2 2 1 2 3 4 3 2 2 1 1 1 1 1 3 4 3 2 1 1 1 1 1 2 4 5 4 3 2 1
8 8 7 7 8 7 7 6 4 4 4 3 2 2 2 2 2 3 3 2 2 1 1 1 0 1 2 3 3 3 2 1 0 1 1 1 0 3 6 5 5 4 2
6 6 7 7 8 7 6 5 4 4 4 3 3 2 2 2 2 3 4 2 2 2 1 0 1 1 2 3 3 2 3 2 1 1 0 1 0 0 2 3 3 4 3
6 6 6 6 6 6 6 5 4 5 4 3 3 2 1 2 2 3 4 4 4 3 2 1 1 2 2 2 2 2 2 2 1 1 0 0 1 1 2 3 3 3 3
6 6 5 5 5 5 6 6 5 4 4 3 3 3 2 2 2 4 4 5 5 3 2 3 3 3 2 1 2 2 2 1 1 1 1 2 2 2 1 1 2 2 3
6 5 5 5 5 5 4 5 5 5 5 4 4 4 3 2 3 3 3 3 4 3 2 2 2 3 2 1 1 1 1 2 2 2 2 2 1 1 1 1 1 1 2
6 5 5 5 5 5 4 4 5 5 6 6 6 5 5 5 6 7 5 4 4 3 2 1 1 1 1 1 1 1 1 1 2 2 2 2 2 2 2 1 1 2 2
6 5 5 4 4 4 4 2 2 3 5 7 7 6 5 6 5 7 8 7 6 6 5 3 3 3 3 3 3 2 2 3 3 3 3 3 3 3 3 2 2 2 3
6 6 4 5 5 5 5 5 3 2 3 5 7 8 7 7 7 7 8 7 6 8 4 4 4 4 4 4 4 3 3 3 3 3 3 3 3 3 3 3 3 3 3
6 6 6 5 5 5 5 5 5 5 4 3 4 7 8 8 8 7 7 6 3 4 5 5 5 4 4 4 4 4 3 3 3 3 3 3 3 3 3 3 3 4 3
5 4 5 4 4 5 4 4 4 5 4 3 2 3 5 5 5 6 7 5 5 5 6 5 5 5 5 4 4 4 3 3 3 3 3 3 3 3 3 3 3 4 4
3 5 5 4 4 4 4 4 4 4 5 4 4 4 3 4 3 4 5 5 5 5 5 5 5 5 4 4 4 3 3 3 3 3 3 3 3 3 4 4 4 4 4
2 3 4 4 4 4 4 5 5 5 5 5 5 5 7 5 5 6 5 6 6 6 5 5 5 5 4 4 4 4 5 4 4 3 3 3 3 3 4 4 4 4 3
2 2 3 3 3 4 4 4 4 4 5 5 3 3 6 5 4 4 4 5 5 5 5 5 5 4 4 5 5 5 5 5 4 4 4 3 3 3 4 4 3 3 3
2 2 2 2 3 3 4 4 4 4 4 4 4 3 4 4 4 5 5 5 4 5 4 5 5 4 4 4 5 5 5 5 5 4 4 4 3 3 3 3 4 3 3
2 3 3 3 2 3 3 4 4 4 4 4 4 4 4 5 5 5 5 4 4 4 4 5 5 6 6 4 4 4 4 4 4 4 5 4 4 3 3 3 3 4 3
2 2 2 3 3 3 3 3 4 4 4 4 4 4 4 4 4 4 4 4 5 5 5 5 4 5 6 6 5 4 4 4 3 3 3 3 3 3 3 4 3 2 2
2 3 3 3 3 4 4 4 4 4 4 4 4 4 4 4 4 4 4 4 4 4 4 4 5 5 5 5 5 4 3 3 3 3 2 3 3 3 3 2 3 2 2
Wind_Direction
176 175 167 168 162 147 147 155 143 124 124 125 120 110 98 79 74 91 95 91 92 69 67 95 87 104 128 130 137 140 132 134 142 133 103 80 94 86 68 73 74 64 65
173 166 167 159 146 144 149 140 125 116 108 112 111 104 96 79 72 92 99 91 98 83 64 81 79 107 104 125 136 139 140 139 146 147 128 109 104 112 88 79 73 75 76
165 162 164 164 160 162 158 142 130 123 115 112 114 115 110 98 88 87 94 89 83 82 87 100 96 106 103 111 126 130 132 124 122 136 131 114 103 109 101 89 76 46 78
166 166 175 181 177 171 157 144 138 134 129 127 125 121 116 107 94 91 94 89 76 66 70 86 103 118 132 137 133 132 124 118 118 123 123 120 119 122 125 121 95 50 46
166 172 185 182 168 155 148 144 139 136 137 132 117 103 98 104 93 106 111 109 96 73 59 64 98 112 125 135 135 142 137 131 131 133 134 134 142 149 163 167 151 106 40
171 179 174 164 160 159 157 151 145 141 135 128 128 131 120 93 96 122 118 120 115 99 73 46 52 74 89 96 108 130 142 148 155 153 162 172 188 187 162 162 154 150 196
174 174 170 165 165 168 163 157 160 160 150 141 139 145 130 116 121 125 119 121 114 97 85 57 50 55 71 89 93 94 102 121 151 164 174 191 190 191 173 170 178 181 195
173 175 172 167 169 167 164 169 172 161 159 163 166 162 151 164 144 140 128 116 104 86 81 88 85 55 68 103 109 95 88 96 168 180 185 202 203 188 186 183 177 164 155
181 182 179 173 171 171 175 175 171 165 166 170 165 162 165 196 167 144 126 116 103 80 54 65 105 122 112 116 117 113 85 18 60 109 172 208 195 180 168 154 158 166 199
189 184 177 173 173 178 181 173 167 168 171 164 162 173 177 189 187 158 143 131 125 113 43 28 46 161 162 146 140 144 155 254 330 27 30 28 147 175 176 182 182 182 187
180 170 170 176 178 178 172 167 160 158 155 161 166 179 190 199 196 183 168 163 177 181 192 235 278 218 185 179 168 174 202 199 165 149 21 8 29 187 199 202 198 189 192
160 161 171 175 175 170 164 162 158 159 163 175 176 191 219 214 203 205 197 192 184 181 199 210 218 191 183 182 180 187 180 159 138 129 144 286 280 261 239 219 213 214 221
158 165 168 165 165 163 165 165 163 168 181 189 191 205 225 218 218 218 210 202 194 190 205 202 198 182 174 183 204 192 172 161 160 189 236 253 258 264 268 237 224 221 234
164 169 166 165 168 170 171 172 176 183 188 193 198 211 220 216 214 208 205 201 198 199 205 199 185 172 164 173 202 204 197 198 203 221 240 253 263 255 258 249 238 226 242
167 171 172 175 175 178 183 189 191 198 195 193 200 202 203 219 222 201 186 193 197 198 168 139 138 154 193 213 231 240 229 214 222 236 238 247 254 257 261 250 235 226 230
170 177 180 179 178 180 179 184 204 208 205 206 206 200 212 217 202 192 197 201 193 169 157 187 202 208 216 220 223 231 229 229 232 233 233 234 239 244 250 243 230 233 238
177 180 180 182 183 187 187 189 202 220 211 211 214 214 216 210 201 197 197 194 185 166 181 209 215 217 223 226 226 228 233 236 232 230 233 234 235 239 240 243 241 244 252
179 184 185 190 191 194 196 199 200 204 215 228 225 218 214 211 207 201 185 158 171 189 212 219 223 223 223 225 228 232 235 233 229 234 236 235 232 234 238 240 237 241 246
182 188 191 192 193 196 196 199 204 207 214 221 226 229 217 208 203 195 174 188 202 208 214 221 224 224 224 223 225 225 226 229 230 228 233 233 232 232 239 242 240 239 241
188 193 188 188 190 194 195 200 207 213 215 216 222 222 184 170 192 197 199 211 216 221 221 223 224 222 220 219 218 220 224 230 231 230 233 232 231 231 238 241 238 237 239
180 185 180 183 196 200 202 207 211 215 220 225 228 216 193 201 209 209 207 211 218 223 221 222 221 217 215 213 213 216 220 226 227 228 229 230 229 235 240 237 235 238 244
172 182 191 200 204 208 210 211 210 216 224 229 235 218 198 207 214 214 217 221 221 222 216 212 219 219 215 212 212 212 218 224 224 224 229 230 228 237 239 236 237 240 240
180 189 202 213 212 207 212 219 216 216 224 227 224 215 206 213 219 222 222 223 219 217 213 211 216 220 219 216 212 211 216 223 223 219 222 226 229 234 233 231 234 236 242
190 200 210 214 213 215 220 225 224 220 223 226 223 220 220 220 222 225 224 224 221 219 214 211 214 218 214 212 215 217 222 227 222 216 216 220 225 231 231 229 228 232 238
197 203 216 223 220 217 222 231 234 229 223 222 224 225 224 221 225 227 225 223 220 219 216 210 209 211 211 211 213 214 213 210 214 216 212 214 221 223 226 228 228 232 243
205 212 219 224 223 220 217 220 224 228 228 224 222 222 221 221 223 225 222 218 217 218 217 213 211 206 204 208 213 205 191 191 193 199 204 205 214 221 219 222 224 229 237